Cape Cod CGAS, MA

5:23 PM EST on February 19, 2018 (GMT -0500)
Cape Cod Coast Guard Air Station

Weather History for KFMH - April, 2014

Change the Weather History Date:

Wednesday, April 16, 2014

  Actual Average Record
Temperature  
Mean Temperature 42 °F -  
Max Temperature 51 °F 53 °F 80 °F (2002)
Min Temperature 32 °F 36 °F 26 °F (2008)
Degree Days  
Heating Degree Days 24    
Moisture  
Dew Point 27 °F    
Average Humidity 66    
Maximum Humidity 100    
Minimum Humidity 23    
Precipitation  
Precipitation 0.24 in - - ()
Sea Level Pressure  
Sea Level Pressure 30.20 in    
Wind  
Wind Speed 13 mph (North)    
Max Wind Speed 29 mph    
Max Gust Speed 32 mph    
Visibility 8 miles    
Events Rain , Snow    
Averages and records for this station are not official NWS values.
T = Trace of Precipitation, MM = Missing Value Source: NWS Daily Summary

Daily Weather History Graph

Daily Weather History Graph

Search for Another Location

Airport or City:

Trip Planner

Search our weather history database for the weather conditions in past years. The results will help you decide how hot, cold, wet, or windy it might be!

Date:

Astronomy

Apr. 16, 2014 Rise Set
Actual Time 6:00 AM EDT 7:23 PM EDT
Civil Twilight 5:31 AM EDT 7:52 PM EDT
Nautical Twilight 4:56 AM EDT 8:27 PM EDT
Astronomical Twilight 4:20 AM EDT 9:04 PM EDT
Moon 9:05 PM EDT (4/16) 6:44 AM EDT (4/16)
Length of Visible Light 14h 21m
Length of Day
13h 23m
Full, 98% of the Moon is Illuminated
Apr 16
Full
Apr 22
Last Quarter
Apr 29
New
May 6
First Quarter
May 14
Full

Hourly Weather History & Observations

Time (EDT) Temp. Windchill Dew Point Humidity Pressure Visibility Wind Dir Wind Speed Gust Speed Precip Events Conditions
12:15 AM 51.8 °F - 50.0 °F 94% 29.68 in 4.0 mi WNW 16.1 mph 21.9 mph N/A Rain Rain
12:35 AM 48.2 °F - 46.4 °F 93% 29.69 in 5.0 mi NW 13.8 mph 23.0 mph N/A Rain Rain
12:55 AM 46.4 °F 40.7 °F 44.6 °F 93% 29.72 in 6.0 mi NW 12.7 mph 24.2 mph N/A Rain Rain
1:15 AM 44.6 °F 37.4 °F 42.8 °F 93% 29.75 in 4.0 mi NW 16.1 mph 25.3 mph N/A Rain Light Rain
1:35 AM 42.8 °F 35.4 °F 41.0 °F 93% 29.75 in 5.0 mi NW 15.0 mph 23.0 mph N/A Rain Light Rain
1:55 AM 42.8 °F 35.8 °F 41.0 °F 93% 29.76 in 4.0 mi NW 13.8 mph 23.0 mph N/A Rain Rain
2:15 AM 41.0 °F 35.2 °F 39.2 °F 93% 29.77 in 3.0 mi NW 9.2 mph 19.6 mph N/A Rain Rain
2:35 AM 41.0 °F 35.2 °F 39.2 °F 93% 29.78 in 5.0 mi NNW 9.2 mph 19.6 mph N/A Rain Rain
2:55 AM 41.0 °F 35.2 °F 39.2 °F 93% 29.77 in 5.0 mi NW 9.2 mph - N/A Rain Light Rain
3:15 AM 41.0 °F 35.2 °F 39.2 °F 93% 29.82 in 5.0 mi WNW 9.2 mph 24.2 mph N/A Rain Light Rain
3:35 AM 39.2 °F 31.2 °F 37.4 °F 93% 29.81 in 5.0 mi NW 13.8 mph 21.9 mph N/A Rain Light Rain
3:55 AM 39.2 °F 31.6 °F 37.4 °F 93% 29.81 in 3.0 mi NW 12.7 mph 21.9 mph N/A Rain Rain
4:15 AM 37.4 °F 29.8 °F 35.6 °F 93% 29.82 in 5.0 mi NW 11.5 mph 20.7 mph N/A Rain Rain
4:35 AM 37.4 °F 29.8 °F 35.6 °F 93% 29.86 in 4.0 mi NNW 11.5 mph 19.6 mph N/A Rain Rain
4:55 AM 37.4 °F 31.4 °F 35.6 °F 93% 29.87 in 5.0 mi NW 8.1 mph - N/A Rain Rain
5:15 AM 35.6 °F 27.1 °F 35.6 °F 100% 29.89 in 3.0 mi NW 12.7 mph - N/A Rain Rain
5:35 AM 35.6 °F 28.0 °F 33.8 °F 93% 29.90 in 5.0 mi NNW 10.4 mph 16.1 mph N/A Rain Rain
5:55 AM 33.8 °F 25.3 °F 33.8 °F 100% 29.94 in 5.0 mi NW 11.5 mph 18.4 mph N/A Rain Light Rain
6:15 AM 33.8 °F 22.5 °F 32.0 °F 93% 30.01 in 3.0 mi NW 19.6 mph - N/A Snow Light Snow
6:55 AM 33.8 °F 27.0 °F 32.0 °F 93% 30.02 in 2.5 mi NW 8.1 mph 15.0 mph N/A Rain , Snow Light Rain
7:15 AM 33.8 °F 25.8 °F 32.0 °F 93% 30.05 in 5.0 mi NW 10.4 mph - N/A Snow Light Snow
7:35 AM 33.8 °F 27.0 °F 32.0 °F 93% 30.07 in 2.0 mi NNW 8.1 mph - N/A Snow Light Snow
7:55 AM 32.0 °F 22.5 °F 32.0 °F 100% 30.10 in 5.0 mi NW 12.7 mph 20.7 mph N/A Snow Light Snow
8:15 AM 32.0 °F 22.1 °F 30.2 °F 93% 30.11 in 9.0 mi NW 13.8 mph 23.0 mph N/A   Mostly Cloudy
8:35 AM 32.0 °F 20.8 °F 28.4 °F 87% 30.12 in 10.0 mi NW 17.3 mph 25.3 mph N/A   Overcast
8:55 AM 33.8 °F 23.9 °F 28.4 °F 81% 30.14 in 10.0 mi NW 15.0 mph 23.0 mph N/A   Mostly Cloudy
9:15 AM 33.8 °F 22.2 °F 24.8 °F 70% 30.15 in 10.0 mi NNW 20.7 mph 31.1 mph N/A   Mostly Cloudy
9:35 AM 33.8 °F 23.2 °F 23.0 °F 65% 30.16 in 10.0 mi NNW 17.3 mph 28.8 mph N/A   Partly Cloudy
9:55 AM 35.6 °F 25.2 °F 24.8 °F 65% 30.17 in 10.0 mi NW 18.4 mph 26.5 mph N/A   Clear
10:15 AM 35.6 °F 25.9 °F 24.8 °F 65% 30.19 in 10.0 mi NNW 16.1 mph 26.5 mph N/A   Clear
10:35 AM 35.6 °F 25.5 °F 21.2 °F 56% 30.21 in 10.0 mi NNW 17.3 mph 28.8 mph N/A   Clear
10:55 AM 37.4 °F 28.2 °F 21.2 °F 52% 30.22 in 10.0 mi NW 16.1 mph 25.3 mph N/A   Clear
11:15 AM 37.4 °F 27.5 °F 19.4 °F 48% 30.23 in 10.0 mi NNW 18.4 mph 32.2 mph N/A   Clear
11:35 AM 39.2 °F 30.5 °F 17.6 °F 42% 30.24 in 10.0 mi North 16.1 mph 23.0 mph N/A   Clear
11:55 AM 39.2 °F 30.8 °F 17.6 °F 42% 30.26 in 10.0 mi NNW 15.0 mph 24.2 mph N/A   Clear
12:15 PM 39.2 °F 30.8 °F 19.4 °F 45% 30.27 in 10.0 mi NNW 15.0 mph 25.3 mph N/A   Clear
12:35 PM 39.2 °F 32.5 °F 19.4 °F 45% 30.29 in 10.0 mi North 10.4 mph 26.5 mph N/A   Clear
12:55 PM 41.0 °F 34.7 °F 19.4 °F 42% 30.30 in 10.0 mi North 10.4 mph 21.9 mph N/A   Clear
1:15 PM 39.2 °F 30.8 °F 21.2 °F 49% 30.31 in 10.0 mi North 15.0 mph 23.0 mph N/A   Clear
1:35 PM 41.0 °F 33.1 °F 21.2 °F 45% 30.32 in 10.0 mi NNE 15.0 mph 26.5 mph N/A   Clear
1:55 PM 41.0 °F 33.5 °F 21.2 °F 45% 30.33 in 10.0 mi NNE 13.8 mph 21.9 mph N/A   Clear
2:15 PM 41.0 °F 33.9 °F 21.2 °F 45% 30.34 in 10.0 mi NNE 12.7 mph 25.3 mph N/A   Clear
2:35 PM 41.0 °F 33.1 °F 21.2 °F 45% 30.34 in 10.0 mi NNE 15.0 mph 24.2 mph N/A   Clear
2:55 PM 41.0 °F 32.5 °F 21.2 °F 45% 30.34 in 10.0 mi NNE 17.3 mph 25.3 mph N/A   Clear
3:15 PM 41.0 °F 32.5 °F 19.4 °F 42% 30.35 in 10.0 mi NNE 17.3 mph - N/A   Clear
3:35 PM 41.0 °F 32.2 °F 19.4 °F 42% 30.36 in 10.0 mi NE 18.4 mph - N/A   Clear
3:55 PM 41.0 °F 34.3 °F 21.2 °F 45% 30.37 in 10.0 mi NNE 11.5 mph 19.6 mph N/A   Clear
4:15 PM 41.0 °F 33.5 °F 19.4 °F 42% 30.38 in 10.0 mi NNE 13.8 mph 26.5 mph N/A   Clear
4:35 PM 41.0 °F 32.5 °F 19.4 °F 42% 30.38 in 10.0 mi NNE 17.3 mph 25.3 mph N/A   Clear
4:55 PM 41.0 °F 33.1 °F 19.4 °F 42% 30.39 in 10.0 mi NE 15.0 mph - N/A   Clear
5:15 PM 41.0 °F 32.5 °F 19.4 °F 42% 30.39 in 10.0 mi NNE 17.3 mph 23.0 mph N/A   Clear
5:35 PM 41.0 °F 32.2 °F 19.4 °F 42% 30.41 in 10.0 mi NNE 18.4 mph - N/A   Clear
5:55 PM 39.2 °F 32.0 °F 19.4 °F 45% 30.42 in 10.0 mi NNE 11.5 mph 23.0 mph N/A   Clear
6:15 PM 39.2 °F 31.2 °F 19.4 °F 45% 30.43 in 10.0 mi NNE 13.8 mph 21.9 mph N/A   Clear
6:35 PM 39.2 °F 31.6 °F 21.2 °F 49% 30.44 in 10.0 mi NNE 12.7 mph 21.9 mph N/A   Clear
6:55 PM 37.4 °F 30.3 °F 21.2 °F 52% 30.45 in 10.0 mi NE 10.4 mph 16.1 mph N/A   Clear
7:35 PM 35.6 °F 28.6 °F 23.0 °F 60% 30.47 in 10.0 mi NE 9.2 mph - N/A   Clear
7:55 PM 35.6 °F 29.9 °F 23.0 °F 60% 30.48 in 10.0 mi NE 6.9 mph - N/A   Clear
8:15 PM 35.6 °F - 23.0 °F 60% 30.49 in 10.0 mi Calm Calm - N/A   Clear
8:35 PM 35.6 °F - 24.8 °F 65% 30.51 in 10.0 mi Calm Calm - N/A   Clear
8:55 PM 33.8 °F 30.8 °F 24.8 °F 70% 30.52 in 10.0 mi North 3.5 mph - N/A   Clear
9:15 PM 33.8 °F 30.8 °F 23.0 °F 65% 30.53 in 10.0 mi Variable 3.5 mph - N/A   Clear
9:35 PM 35.6 °F 30.7 °F 23.0 °F 60% 30.53 in 10.0 mi NNE 5.8 mph - N/A   Clear
9:55 PM 37.4 °F 31.4 °F 21.2 °F 52% 30.54 in 10.0 mi NNE 8.1 mph - N/A   Clear
10:15 PM 37.4 °F 30.3 °F 17.6 °F 45% 30.55 in 10.0 mi NNE 10.4 mph - N/A   Clear
10:35 PM 37.4 °F 31.4 °F 17.6 °F 45% 30.55 in 10.0 mi NNE 8.1 mph 13.8 mph N/A   Clear
10:55 PM 37.4 °F 31.4 °F 17.6 °F 45% 30.55 in 10.0 mi NNE 8.1 mph - N/A   Clear
11:15 PM 37.4 °F 30.3 °F 19.4 °F 48% 30.56 in 10.0 mi NNE 10.4 mph 19.6 mph N/A   Scattered Clouds
11:35 PM 35.6 °F 29.2 °F 23.0 °F 60% 30.57 in 10.0 mi NNE 8.1 mph - N/A   Overcast
11:55 PM 35.6 °F 28.6 °F 23.0 °F 60% 30.57 in 10.0 mi NNE 9.2 mph 16.1 mph N/A   Overcast